Theta_e
279 279 279 279 280 281 281 281 282 282 282 283 284 284 284 286 287 289 288 287 288 286 287 287 288 289 290 293 296 295 295 293 284 279 279 280 280 278 278 277 277 277 277
279 279 278 278 279 279 280 280 280 280 281 281 282 282 281 282 283 283 283 283 284 284 285 286 286 288 287 287 289 290 290 289 283 280 278 277 277 276 275 275 276 276 276
279 279 278 278 278 278 278 279 279 279 279 280 280 280 280 280 281 281 282 282 282 282 281 280 280 281 279 280 280 281 282 281 282 278 276 275 275 275 275 275 274 274 275
278 278 278 278 278 278 278 278 278 279 279 279 279 279 279 279 279 279 279 278 278 278 278 277 278 278 278 278 277 278 278 278 278 277 275 275 275 274 274 273 274 274 275
279 279 279 279 279 279 279 278 279 279 278 279 279 279 279 279 278 278 278 278 278 277 277 277 277 278 278 278 277 277 277 277 276 276 275 275 274 273 272 272 272 272 274
279 279 279 279 278 278 278 278 278 278 278 278 278 279 279 279 279 278 277 277 276 276 276 275 275 276 277 276 277 277 277 276 276 275 274 274 273 272 272 272 271 272 271
278 278 278 278 278 278 278 278 278 277 277 277 277 277 277 278 278 277 277 277 277 276 276 276 276 275 275 275 275 275 275 275 275 275 274 273 273 272 272 272 272 271 271
278 278 278 278 278 278 277 277 277 277 277 277 277 277 276 277 276 276 276 276 276 276 276 276 276 276 277 275 275 274 274 274 274 274 273 273 273 274 274 273 272 271 270
277 277 277 277 278 278 278 278 277 277 277 277 277 277 277 277 277 276 276 275 275 275 275 276 275 276 276 276 275 275 274 273 274 274 274 273 273 273 272 271 270 268 268
277 277 277 278 278 278 277 277 277 277 277 277 277 277 277 277 277 277 276 276 275 275 274 274 275 276 276 276 275 275 274 274 274 274 274 273 272 272 271 269 268 267 266
277 277 277 277 277 277 277 277 277 277 277 277 277 278 277 277 278 277 276 276 275 275 274 273 273 274 275 275 275 274 274 274 274 273 273 272 273 272 272 270 268 268 267
277 277 277 277 277 277 277 277 277 277 277 276 276 276 276 276 277 277 277 276 275 275 275 274 274 275 275 275 274 274 274 273 272 271 271 271 271 271 270 269 268 267 267
277 277 277 276 276 276 276 276 276 276 276 276 276 276 275 276 276 276 276 276 276 276 275 275 275 274 274 274 274 273 272 272 271 270 270 270 270 270 269 269 269 268 268
277 276 276 276 276 276 276 276 276 276 276 276 276 277 276 276 276 276 277 276 276 276 276 276 275 274 274 273 274 274 274 273 271 270 269 270 269 269 268 268 267 267 265
276 276 276 276 276 276 276 276 276 277 277 276 276 276 277 276 276 275 276 276 276 276 276 276 276 276 274 274 274 273 272 272 271 271 270 269 268 268 267 267 266 266 265
276 275 275 275 275 275 276 276 276 277 277 276 276 276 276 276 276 276 276 275 277 277 277 276 276 276 275 274 273 272 271 271 271 270 270 269 268 267 266 266 265 265 264
277 277 276 276 276 276 276 276 276 277 277 276 276 276 277 276 276 276 276 277 277 277 277 276 276 275 275 274 273 272 271 272 271 270 269 268 268 266 266 265 264 264 263
276 276 276 276 276 276 276 276 276 276 276 277 278 278 278 279 279 279 279 279 278 277 277 276 275 275 274 274 273 272 271 271 271 270 270 269 268 266 265 264 264 263 263
276 276 276 276 276 276 276 276 276 276 276 276 276 276 276 278 278 279 279 278 277 276 275 275 275 275 274 274 274 273 271 270 270 269 269 268 268 266 265 264 263 263 262
276 276 276 276 275 275 276 276 276 276 275 275 275 276 276 275 274 274 275 275 275 275 275 274 274 274 274 274 273 272 271 270 269 269 268 268 268 267 265 264 263 263 263
276 276 275 274 274 275 275 275 274 274 274 274 274 275 275 275 275 274 274 274 273 273 273 273 273 273 273 272 271 271 270 269 269 268 268 267 267 266 266 264 263 263 262
276 276 274 274 274 274 274 274 274 274 273 273 274 274 275 276 275 274 274 274 274 274 273 273 272 272 272 271 271 270 270 269 269 268 267 267 267 266 265 263 263 262 262
275 274 274 274 274 273 273 273 273 273 273 274 274 274 274 274 274 274 274 274 273 273 273 272 272 272 271 271 271 271 270 269 268 267 267 267 267 266 264 263 262 262 261
275 274 274 274 274 273 273 273 273 273 273 273 273 273 273 273 273 273 273 273 272 272 272 271 271 271 271 270 270 270 269 268 268 267 267 266 266 264 263 262 261 261 260
274 273 273 274 274 274 274 273 273 273 274 273 273 273 273 273 272 272 272 272 272 271 271 271 270 270 270 270 269 269 269 268 267 267 267 266 265 264 262 261 261 261 261
274 273 273 273 273 274 274 274 274 273 273 273 273 273 273 273 272 272 272 271 271 271 270 270 270 270 269 269 269 268 268 269 268 267 266 266 265 263 262 262 262 261 261
Wind_Speed
9 8 10 11 11 12 13 13 13 12 13 16 18 19 20 21 20 24 26 24 29 28 29 26 29 23 24 24 21 16 13 10 9 6 9 13 10 5 4 5 6 7 9
12 13 14 14 15 16 17 17 16 19 20 22 24 26 28 29 29 34 34 34 37 37 32 32 30 29 27 24 25 25 21 9 16 15 19 10 5 6 5 6 7 8 11
16 18 21 21 21 20 20 21 22 25 27 28 30 33 34 33 36 36 37 37 36 34 33 30 27 29 22 28 25 27 24 15 15 16 14 11 7 7 5 6 7 10 14
19 22 22 22 22 23 25 27 29 29 32 32 34 36 35 36 35 36 36 36 36 35 31 28 29 28 27 28 21 24 25 25 23 19 17 10 4 1 4 6 8 16 22
20 23 24 23 25 27 28 29 29 31 31 32 32 32 30 30 28 32 32 34 35 33 31 31 28 24 28 24 19 20 20 22 19 16 13 6 3 1 5 8 10 21 26
21 22 22 23 24 26 28 28 29 29 30 32 31 29 28 26 22 23 29 31 28 28 28 26 24 26 23 18 21 20 17 15 16 10 6 4 2 3 6 11 13 11 7
21 21 21 21 23 24 25 26 25 25 28 30 29 29 28 23 20 20 24 26 25 23 23 19 16 17 17 17 16 16 15 15 13 9 7 3 3 4 10 13 12 11 13
18 18 18 20 22 22 23 23 24 22 23 24 25 25 23 19 17 19 21 23 22 21 20 17 15 16 15 13 11 11 12 11 10 7 4 4 7 11 14 17 17 20 26
16 15 15 16 19 19 19 19 19 20 21 21 20 19 20 16 13 14 16 17 16 16 15 13 12 13 12 12 11 10 10 7 5 5 6 9 11 12 12 16 18 16 9
12 12 13 14 16 16 14 14 13 15 17 17 18 17 15 15 13 12 12 12 12 10 9 8 9 10 10 10 10 9 9 9 11 14 16 17 16 15 12 12 14 16 15
10 11 11 11 11 11 11 10 11 12 14 14 15 14 13 12 11 10 8 8 8 7 5 5 5 6 8 7 6 9 8 10 14 18 21 21 19 18 17 15 15 16 19
10 10 10 10 8 9 9 9 9 9 10 10 9 8 7 6 6 6 7 6 5 4 4 5 5 5 7 8 8 8 8 11 16 19 21 22 22 23 21 20 22 22 26
10 9 8 8 8 8 8 8 8 7 6 7 5 3 2 2 2 2 2 2 2 2 3 2 4 7 7 8 10 8 11 14 16 19 21 23 24 24 25 26 26 26 27
11 10 8 7 7 6 6 5 4 5 5 4 5 5 5 5 5 5 4 2 3 4 4 7 12 11 9 11 13 13 14 15 17 20 23 26 27 26 29 28 28 29 28
15 13 12 11 10 9 9 9 9 9 10 11 12 11 13 13 12 10 9 8 7 8 13 15 17 17 17 17 18 19 18 19 20 23 24 27 28 28 31 29 27 26 24
17 17 15 14 13 13 12 13 14 15 15 16 15 15 16 16 12 12 13 13 12 11 16 20 23 23 23 23 22 23 22 22 24 24 26 27 29 28 29 30 27 26 25
23 21 20 19 18 18 18 18 18 15 16 19 19 19 19 19 19 18 18 17 17 16 23 27 29 29 30 29 28 28 29 28 25 24 26 28 30 29 27 27 26 24 25
25 25 23 22 23 22 22 22 21 21 22 24 22 22 23 23 23 22 21 20 25 26 28 32 32 32 34 34 33 33 33 31 30 29 29 29 29 27 25 25 25 24 25
30 30 30 26 25 24 24 24 25 26 28 30 28 26 27 25 25 25 24 28 28 28 29 33 35 36 37 38 38 37 36 36 35 32 31 30 29 26 27 28 27 29 28
34 34 33 32 32 29 27 28 29 31 31 30 30 35 31 26 30 33 33 34 35 36 35 35 35 34 37 39 39 38 36 35 35 34 34 32 32 31 29 27 25 25 26
37 36 36 34 32 33 33 34 33 29 28 27 33 35 30 29 33 34 34 34 36 38 39 37 36 36 37 37 36 36 35 34 33 33 30 30 30 29 29 29 28 28 29
38 38 36 38 36 33 34 33 33 31 31 31 31 31 24 28 31 32 33 35 36 37 38 36 36 36 36 34 33 32 32 32 33 33 31 30 30 32 29 27 27 28 28
37 36 35 34 36 35 33 34 30 30 29 29 29 29 28 30 30 32 33 34 34 35 36 35 35 35 33 33 33 34 33 31 32 31 28 28 30 31 27 27 28 28 27
35 34 31 29 27 29 29 28 29 30 30 29 29 29 28 29 31 32 33 33 33 34 32 31 31 32 33 33 32 34 35 34 33 32 32 33 33 31 31 31 29 31 32
30 29 26 24 23 23 23 25 26 28 30 30 28 29 30 30 29 29 29 31 31 30 30 30 30 30 29 30 31 31 31 31 32 31 32 33 36 37 36 31 33 32 32
23 24 25 24 23 22 23 22 23 23 24 24 26 28 27 25 26 27 28 26 27 28 28 28 27 27 28 29 28 29 28 26 28 29 31 34 37 37 34 36 37 34 34
Wind_Direction
20 35 51 60 76 84 88 88 91 104 103 99 100 103 103 105 110 113 109 110 105 104 100 101 97 99 102 102 110 111 110 119 116 114 139 153 156 157 216 245 275 286 284
43 59 64 73 78 84 85 90 98 97 97 99 103 103 102 102 107 104 103 103 100 93 97 93 95 91 91 93 96 91 90 120 132 141 134 132 165 204 248 280 294 290 295
59 63 65 67 76 83 92 98 99 100 96 97 97 94 93 92 95 99 98 98 98 96 92 92 98 98 93 94 88 96 103 113 118 132 124 139 160 206 239 283 297 301 306
68 71 68 69 74 78 85 88 91 93 91 91 93 96 96 97 98 98 101 100 97 95 95 91 90 95 96 90 87 94 105 102 104 112 111 119 135 175 300 311 325 325 322
71 73 69 74 79 81 80 82 83 85 86 87 86 85 90 94 99 106 105 101 101 101 97 88 83 79 79 84 98 90 93 102 99 98 94 109 117 356 339 333 328 333 332
63 66 71 74 76 76 81 84 86 86 88 91 88 85 82 82 87 91 102 98 96 93 90 84 78 76 77 80 78 77 80 85 89 89 90 95 68 323 332 332 338 351 333
61 62 65 70 71 76 83 83 83 87 97 95 92 92 86 83 85 87 94 94 88 82 79 76 72 71 74 71 65 66 67 65 71 80 71 47 327 324 321 320 324 306 277
74 75 80 86 83 88 88 88 89 90 91 92 93 90 85 79 83 87 90 91 91 92 90 84 79 70 56 61 62 59 52 46 43 45 29 326 315 322 315 310 305 295 291
86 83 86 92 95 95 88 91 96 94 90 89 90 90 90 83 76 79 85 85 85 81 80 83 75 64 51 46 44 40 36 27 11 353 328 322 314 304 299 293 292 306 308
103 103 107 107 107 102 102 104 106 105 106 106 99 91 87 85 71 72 80 83 81 79 79 78 70 58 42 35 21 7 353 347 333 327 319 320 317 312 306 285 288 276 282
121 120 119 117 116 118 122 118 115 113 112 107 104 104 101 93 85 81 91 101 107 111 96 73 47 48 25 15 357 343 337 324 310 308 311 314 317 320 318 310 296 281 269
147 143 139 135 132 133 133 126 120 118 111 110 112 117 117 119 113 107 103 100 102 76 50 31 11 346 335 335 323 321 310 297 299 304 307 313 317 316 315 305 297 287 282
169 165 163 161 158 155 153 149 147 144 152 150 149 158 152 136 105 81 56 41 31 341 288 300 298 302 302 310 316 309 301 309 309 304 304 305 307 307 304 302 304 301 296
187 187 190 191 187 188 188 191 200 205 208 227 219 225 245 244 237 229 225 224 241 272 284 303 315 311 314 311 315 316 313 309 305 299 297 301 303 304 305 308 304 305 295
199 200 205 212 217 220 226 232 236 234 239 243 242 237 234 239 244 240 233 248 270 298 301 301 304 303 304 306 308 306 304 299 292 294 291 292 296 297 297 301 296 293 275
209 213 216 219 224 227 234 238 244 247 243 244 244 250 250 253 248 243 251 258 260 259 265 277 282 283 282 286 285 287 287 283 284 286 285 286 284 283 286 292 289 280 275
219 223 225 226 227 231 235 242 255 251 255 252 250 249 247 251 246 243 249 255 257 257 254 262 267 272 275 277 274 274 276 282 287 282 282 283 284 283 279 277 279 279 279
226 228 231 233 234 235 238 242 247 250 254 257 253 250 251 250 250 252 255 261 260 252 254 259 260 265 269 273 274 274 276 278 279 279 281 284 286 275 273 272 274 273 276
225 229 230 235 240 242 243 246 247 247 247 253 257 255 252 249 250 251 250 249 253 255 253 254 260 264 268 275 278 277 276 276 277 277 277 280 283 274 269 271 271 272 272
231 235 236 236 238 238 242 242 244 245 246 251 254 256 260 252 248 249 250 249 249 254 257 257 260 261 264 270 274 275 273 272 272 271 275 278 284 283 270 268 267 270 273
233 236 236 237 238 240 240 241 243 244 247 250 253 262 264 256 258 260 261 262 261 260 266 267 267 267 269 269 270 269 266 266 267 268 268 269 273 266 269 267 268 268 271
234 237 237 235 236 236 238 242 243 245 247 249 258 264 254 247 250 255 259 264 268 273 278 274 272 273 273 271 270 268 266 265 269 270 268 269 272 272 269 266 267 268 270
234 233 234 238 241 242 243 244 243 244 247 251 256 260 260 256 253 256 262 267 271 275 281 281 277 274 272 273 272 270 267 267 270 271 265 268 271 270 268 268 268 269 268
236 233 233 236 237 239 241 245 248 251 252 256 259 261 261 262 264 267 270 273 276 279 280 276 273 274 276 277 276 277 281 284 284 280 278 275 273 273 273 270 267 268 269
241 238 236 237 240 242 247 251 253 256 259 261 262 265 269 269 269 271 276 278 281 280 280 284 285 285 282 283 283 283 285 285 282 281 279 279 280 282 275 269 269 269 268
244 246 248 250 251 252 253 256 259 261 261 263 265 269 270 272 272 275 280 278 279 284 288 287 286 287 289 290 290 292 292 292 289 289 286 283 279 275 273 271 271 265 267